Flag for Estonia Weather past 2 weeks in Kohtla-Järve, Estonia

Now
46 °F

Clear.


Feels Like: 46 °F
Forecast: 47 / 64 °F
Wind: No wind

Location: Johvi

Current Time: Sep 2, 2014 at 10:12:34 PM

Latest Report: Sep 2, 2014 at 9:00 PM


Visibility: 14 mi

Pressure: 30.33 "Hg

Humidity: 89%

Dew point: 43 °F

Location of Kohtla-JärveLocation

Historic Weather in Kohtla-Järve — Graph

°F

Kohtla-Järve temperature yesterday

Maximum temperature yesterday: 58 °F (at 1:00 PM)
Minimum temperature yesterday: 49 °F (at 6:00 AM)
Average temperature yesterday: 54 °F

Past Weeks' High & Low Weather Summary

 TemperatureHumidityPressure
High68 °F (Aug 20, 4:00 PM)99% (Aug 29, 3:00 AM)30.32 "Hg (Aug 29, 3:00 AM)
Low45 °F (Aug 31, 6:00 AM)46% (Aug 21, 5:00 PM)29.32 "Hg (Aug 26, 3:00 AM)
Average56 °F85%29.80 "Hg
* Reported Aug 18 8:00 PM — Sep 2 8:00 PM, Kohtla-Järve, Weather by CustomWeather, © 2014

Note: Actual official high and low records may vary slightly from our data, if they occured in-between our weather recording intervals... More about our weather records

Advertising

Kohtla-Järve weather history for previous 24 hours

 ConditionsComfort  
Time TempWeatherWind HumidityBarometerVisibility
8:00 PM
Sep 2
52 °FPassing clouds.1 mph79%30.32 "Hg28 mi
7:00 PM55 °FSunny.2 mph68%30.31 "Hg28 mi
6:00 PM57 °FPassing clouds.2 mph66%30.30 "Hg22 mi
5:00 PM58 °FSunny.2 mph61%30.30 "Hg25 mi
4:00 PM59 °FSunny.2 mph59%30.30 "Hg22 mi
3:00 PM60 °FPassing clouds.2 mph63%30.30 "Hg22 mi
2:00 PM59 °FPartly sunny.2 mph65%30.29 "Hg17 mi
1:00 PM56 °FPartly sunny.No wind68%30.29 "Hg22 mi
12:00 PM54 °FOvercast.1 mph68%30.29 "Hg28 mi
11:00 AM54 °FOvercast.No wind72%30.29 "Hg22 mi
10:00 AM52 °FOvercast.No wind80%30.28 "Hg22 mi
9:00 AM51 °FOvercast.1 mph90%30.27 "Hg25 mi
8:00 AM50 °FOvercast.No wind94%30.27 "Hg15 mi
7:00 AM49 °FOvercast.1 mph95%30.26 "Hg11 mi
6:00 AM48 °FOvercast.1 mph96%30.26 "Hg11 mi
5:00 AM48 °FOvercast.1 mph96%30.26 "Hg13 mi
4:00 AM47 °FPassing clouds.No wind96%30.25 "Hg12 mi
3:00 AM48 °FFog.No wind95%30.25 "Hg6 mi
2:00 AM49 °FOvercast.No wind93%30.24 "Hg22 mi
1:00 AM50 °FPassing clouds.1 mph91%30.24 "Hg22 mi
12:00 AM51 °FOvercast.1 mph90%30.24 "Hg22 mi
11:00 PM
Sep 1
52 °FOvercast.1 mph90%30.24 "Hg28 mi
10:00 PM52 °FOvercast.1 mph90%30.24 "Hg22 mi
Weather by CustomWeather, © 2014

See weather overviewHow to use our weather pages